Temperature
18 18 19 18 18 18 17 17 15 16 15 14 13 13 14 14 14 14 14 13 13 13 12 12 12 11 11 11 11 11 11 11 11 11 11 11 11 11 10 10 10 10 10 9
18 18 18 18 18 18 17 17 16 15 14 14 14 14 14 14 14 13 13 12 12 12 11 11 10 10 10 10 10 9 9 9 10 10 10 10 10 10 10 10 10 10 9 9
17 18 17 17 17 17 17 16 15 14 13 13 12 12 13 13 13 12 12 11 11 10 10 9 9 9 8 8 8 8 8 8 8 8 8 9 9 9 9 9 9 9 9 9
15 17 18 17 17 17 16 15 14 14 13 13 13 13 13 13 12 12 11 10 9 9 8 8 8 7 7 7 7 7 7 7 7 6 7 7 7 8 8 8 9 9 9 9
15 17 17 17 17 17 16 14 14 13 12 13 13 11 12 13 11 10 10 9 8 8 8 7 7 6 6 6 6 5 5 5 5 5 5 5 6 6 7 7 8 8 8 8
15 17 17 17 17 17 15 14 14 13 12 12 11 8 9 11 10 10 9 8 8 7 7 6 6 6 5 5 5 5 5 5 5 5 5 5 5 5 6 6 6 7 7 7
15 16 15 16 16 16 15 14 14 14 13 12 10 10 11 10 9 9 8 7 7 6 6 6 5 5 5 5 5 5 4 4 4 4 4 4 4 5 5 5 6 6 6 7
13 15 16 16 15 14 14 15 14 14 13 12 11 11 10 9 9 8 7 7 6 6 5 5 5 5 5 5 5 4 4 4 4 4 4 4 4 4 4 5 5 5 6 6
14 15 16 16 16 16 16 15 14 13 12 11 11 10 9 8 8 7 7 6 6 5 5 5 5 5 5 5 5 4 4 4 4 4 4 4 4 4 4 4 4 5 5 6
13 14 15 16 16 16 15 14 13 12 12 11 10 9 8 8 7 7 6 6 5 5 5 5 5 5 5 5 4 4 4 4 4 4 4 4 4 4 4 4 4 5 5 5
14 14 15 16 16 15 14 14 13 12 11 10 9 9 8 7 7 6 6 6 5 5 5 5 5 5 5 5 5 4 4 4 4 4 4 4 4 4 4 4 4 5 5 5
14 16 14 17 17 15 14 13 12 11 11 10 9 8 8 7 7 6 6 5 5 5 5 5 5 5 5 5 5 4 4 4 4 4 4 4 4 4 4 4 5 5 5 5
19 19 18 17 16 14 14 13 12 11 10 9 9 8 7 7 7 6 6 5 5 5 5 5 5 5 5 5 5 5 5 5 5 5 5 4 4 4 5 5 5 5 5 5
19 18 17 16 15 14 13 12 11 11 10 9 8 8 7 7 7 6 6 5 5 5 5 5 5 5 5 5 5 5 5 5 5 5 5 5 5 5 5 5 5 5 5 5
18 17 17 16 15 14 13 12 11 10 9 9 8 8 7 7 6 6 6 6 6 5 5 5 5 5 5 5 5 5 5 5 5 5 5 5 5 5 5 5 5 5 5 5
18 17 16 15 14 13 12 12 11 10 9 9 8 8 7 7 6 6 6 6 5 5 5 5 5 5 5 5 6 6 5 5 5 5 5 5 5 5 5 5 5 5 5 5
18 17 16 15 14 13 12 11 10 9 9 9 8 7 7 7 7 7 7 6 6 6 5 5 5 6 6 6 6 6 6 6 6 6 5 5 5 5 5 5 5 5 6 6
19 18 17 16 14 13 12 11 10 9 9 8 8 7 7 7 6 6 6 6 6 6 6 6 6 6 6 6 6 6 6 6 6 6 6 6 6 6 6 6 6 6 6 6
18 17 16 15 14 13 12 11 10 9 9 8 8 7 7 7 6 6 6 6 6 6 6 6 6 7 7 6 6 6 6 6 6 6 6 6 6 6 6 6 6 6 6 6
17 17 16 15 14 13 12 11 10 9 9 8 8 8 7 7 7 7 7 6 6 6 6 6 6 7 7 7 7 7 6 6 6 6 6 6 6 6 6 6 6 6 6 6
17 16 15 14 13 13 12 11 10 9 9 8 8 7 7 7 7 7 7 6 7 6 7 7 7 7 7 7 7 7 7 7 6 6 6 6 6 6 6 7 7 7 7 7
17 16 15 14 13 12 12 11 10 9 9 8 8 7 7 7 7 7 7 6 6 7 7 7 7 7 7 7 7 7 7 7 7 7 7 7 7 7 7 7 7 7 7 8
17 16 15 14 13 12 12 11 10 9 9 8 8 7 7 7 7 7 7 7 7 7 7 7 7 7 8 8 7 7 7 7 7 7 7 7 7 7 7 8 8 8 8 8
16 15 14 14 13 12 12 11 10 9 9 8 8 7 7 7 7 7 6 6 7 7 8 8 8 8 8 8 8 7 7 7 7 7 7 7 7 8 8 8 8 8 9 9
16 15 14 14 13 13 12 11 10 9 9 8 8 7 7 7 6 7 6 7 7 7 8 8 8 8 8 8 8 8 8 8 8 8 8 8 8 8 8 8 9 9 9 9
15 15 14 14 13 13 12 11 10 9 9 8 8 7 7 7 6 6 6 7 7 7 8 8 8 8 8 8 8 8 8 8 8 8 8 8 8 8 9 9 9 9 9 10
15 14 14 13 13 13 12 11 10 9 9 8 7 7 7 7 6 6 6 6 7 7 7 8 8 8 8 8 8 8 8 8 9 9 9 9 9 9 9 9 10 10 10 10
Wind_Speed
0 0 3 3 4 4 4 3 4 7 8 8 6 7 8 8 10 10 11 11 11 11 11 11 12 12 11 12 12 11 11 12 13 14 13 12 12 13 12 11 13 12 11 11
2 3 5 4 4 2 1 2 5 6 8 5 6 6 7 10 11 11 12 12 12 12 12 12 12 12 12 12 12 11 11 13 13 12 12 12 12 12 11 11 12 11 11 12
2 2 1 2 3 3 4 6 6 7 7 6 8 9 9 10 11 12 12 12 12 12 12 12 12 12 11 12 11 11 12 13 12 12 12 13 13 11 11 12 11 11 11 11
2 2 4 6 4 4 5 7 6 7 7 8 10 10 10 11 10 11 11 11 11 11 11 11 11 12 12 12 12 13 13 14 13 12 12 12 12 11 11 10 9 10 10 11
3 1 6 3 3 3 4 8 6 6 8 8 8 8 7 8 6 9 10 10 10 11 12 12 13 14 14 14 14 14 15 14 13 13 13 12 12 12 11 9 9 9 8 10
4 1 5 5 2 1 1 6 5 5 8 8 7 7 8 7 8 10 10 10 11 12 13 13 14 14 14 16 15 16 15 15 14 13 13 14 13 12 10 9 10 9 9 9
3 3 7 6 2 3 0 7 4 5 7 7 5 8 9 11 10 9 11 13 13 13 13 14 14 14 15 16 16 16 16 16 14 13 13 13 12 11 10 10 9 9 9 9
4 2 6 4 5 5 8 4 3 5 6 7 9 10 10 10 10 11 12 12 13 13 14 14 13 13 16 17 16 16 16 15 14 13 12 11 10 9 9 9 9 9 9 9
8 7 6 5 7 5 5 4 5 4 7 7 8 8 9 9 10 11 12 13 13 14 15 15 14 13 16 17 16 16 15 14 13 13 11 10 9 9 8 7 7 8 8 8
4 7 6 6 5 3 4 5 4 5 6 6 7 9 10 10 10 11 11 14 13 14 16 17 16 15 15 16 16 15 15 14 12 11 10 8 7 7 7 7 7 7 7 7
5 6 4 6 7 5 3 3 4 5 4 6 7 9 9 9 11 11 13 12 12 14 16 18 17 17 16 15 15 14 14 12 11 9 8 7 6 5 7 7 7 7 6 6
8 8 7 7 6 6 5 4 5 5 5 6 6 8 9 10 10 12 13 14 14 15 16 17 17 17 15 14 13 13 12 11 9 7 6 5 5 5 6 7 8 10 10 8
6 5 7 4 4 5 4 4 4 4 6 7 7 7 8 9 9 11 13 14 15 16 17 17 17 16 15 14 13 13 12 11 8 7 6 5 4 4 3 2 2 2 5 8
5 6 4 5 5 5 4 2 2 4 6 7 6 8 9 9 11 13 14 15 15 16 16 16 16 16 15 14 13 13 11 11 9 6 5 4 3 3 2 2 1 1 1 1
8 7 6 5 5 4 2 1 3 5 6 7 6 8 9 11 13 14 14 14 15 15 16 16 17 16 15 14 13 12 10 8 6 5 4 3 2 2 2 1 1 1 2 3
8 6 5 5 6 5 3 3 4 6 7 7 7 9 10 11 12 13 13 13 15 16 16 16 16 16 16 14 13 10 8 11 8 5 4 3 2 2 1 1 1 2 2 2
9 7 8 7 7 6 5 6 6 6 6 7 8 9 10 11 12 14 15 15 14 14 14 14 16 17 15 14 12 8 7 7 8 5 3 3 2 2 1 1 2 2 1 1
10 10 9 8 7 7 6 6 6 6 6 7 8 8 9 11 13 14 15 16 15 14 12 15 17 18 15 13 11 8 6 5 4 4 3 3 2 2 2 2 2 2 2 1
8 9 9 9 8 7 6 6 6 5 6 6 6 8 9 10 11 12 13 14 14 15 17 18 21 17 15 15 14 6 6 5 4 3 3 3 3 3 3 3 3 2 2 2
8 8 9 8 7 6 5 5 5 5 5 5 6 7 9 10 11 12 13 11 9 11 16 18 17 14 14 14 14 6 5 5 4 4 3 3 3 3 3 3 3 2 2 2
10 9 9 8 7 6 6 4 4 5 5 4 5 7 9 10 10 10 11 11 12 14 16 16 13 13 13 13 11 6 5 4 4 3 4 3 4 4 4 4 3 3 2 2
9 9 9 8 7 5 4 4 4 4 4 5 5 6 8 9 11 10 8 7 11 16 14 11 11 16 18 14 7 7 6 5 4 4 3 3 3 3 3 4 3 3 2 2
8 8 8 8 7 6 4 3 4 3 4 4 5 6 7 8 7 8 10 9 11 16 12 10 16 21 19 10 8 7 7 6 5 4 4 3 3 3 3 3 3 2 2 2
8 8 8 7 6 5 5 5 4 3 3 3 3 4 5 6 6 4 7 11 13 15 11 12 17 20 15 9 8 7 7 6 5 4 4 3 3 3 3 3 2 2 2 2
9 9 7 7 7 7 7 5 3 3 2 2 3 4 4 4 5 7 9 10 13 13 10 12 16 16 11 9 9 8 7 7 6 5 4 4 3 3 3 3 2 2 2 2
8 8 8 9 8 7 6 5 4 4 3 2 3 3 4 5 6 7 7 9 11 12 10 9 11 11 10 9 9 9 7 7 7 6 6 5 4 3 3 2 3 2 2 2
6 6 6 6 6 6 6 6 6 5 4 3 2 3 4 5 6 7 8 8 9 9 9 9 9 9 9 9 9 8 8 7 7 7 6 5 5 4 4 4 3 3 3 3
Wind_Direction
256 282 110 82 60 65 89 166 209 259 266 269 271 280 282 286 289 294 295 293 288 288 289 289 290 288 286 284 282 279 276 271 266 263 259 254 251 249 245 239 239 237 237 238
47 58 86 76 44 63 103 245 252 270 275 254 280 288 286 286 288 291 291 291 292 294 296 297 296 296 295 292 289 286 281 278 275 271 266 259 254 251 246 242 239 234 232 234
205 247 351 263 217 216 246 244 237 252 260 296 300 293 284 285 290 291 292 295 298 300 299 299 298 297 296 291 290 289 285 282 280 277 274 269 264 257 248 243 237 232 233 232
115 76 252 253 223 219 244 258 230 239 264 279 272 278 278 278 282 289 295 298 299 298 297 296 294 295 293 292 292 291 288 286 283 280 279 277 271 262 255 249 240 233 233 230
110 246 285 279 231 217 258 280 222 236 269 280 293 314 293 278 284 289 293 293 294 295 298 297 299 299 299 299 298 296 294 291 288 285 282 278 273 268 261 254 247 236 232 231
125 196 257 254 243 223 145 290 232 235 272 288 322 321 293 295 311 305 302 300 300 300 300 301 302 303 303 303 301 298 296 293 289 282 279 275 269 264 260 253 250 245 239 233
156 226 264 247 236 83 264 270 245 244 270 283 266 250 276 302 303 295 296 298 299 301 303 303 305 306 305 304 301 300 298 295 291 282 276 273 269 262 256 251 248 246 245 241
152 204 268 216 151 184 226 251 266 268 272 274 270 276 289 297 297 301 302 302 303 306 307 307 306 307 307 305 304 303 301 298 294 286 281 281 269 264 256 247 244 245 246 249
188 213 239 221 209 218 188 228 259 262 275 282 283 287 294 293 296 299 302 305 308 310 310 310 311 310 308 308 309 307 306 302 297 292 283 277 270 264 257 246 243 243 239 243
233 258 244 235 234 232 207 227 258 270 281 283 283 288 295 296 298 303 304 311 312 314 315 316 316 314 309 309 311 310 308 307 303 298 291 284 273 260 250 243 239 238 235 236
243 268 274 259 232 225 229 249 277 288 280 279 284 290 291 298 302 306 311 312 313 316 317 317 318 316 315 316 317 317 314 311 311 305 296 293 285 264 253 243 234 228 230 229
219 218 196 237 228 198 209 241 262 278 289 290 283 284 293 299 301 307 313 315 318 319 319 319 319 318 319 320 321 321 319 317 315 311 305 299 296 292 259 247 246 233 232 231
207 191 184 215 183 176 197 231 256 270 278 288 291 288 295 299 301 309 315 319 320 320 319 318 318 319 321 322 323 322 319 317 315 312 309 303 299 303 309 298 268 245 242 237
180 141 168 198 194 188 193 229 272 292 292 287 286 294 300 301 309 317 320 320 318 318 318 319 321 321 323 323 323 322 319 318 320 316 316 312 307 309 310 314 331 29 30 360
189 180 187 182 165 164 177 227 281 298 298 299 295 301 308 314 317 318 317 318 320 321 323 324 324 325 326 325 323 322 321 318 318 320 322 321 318 319 329 347 39 72 70 56
175 161 160 169 190 199 209 242 265 282 290 294 299 305 309 311 312 315 318 324 327 326 325 325 326 327 326 326 325 323 321 327 332 328 333 341 347 356 17 33 61 73 81 87
150 180 196 206 214 215 221 233 245 264 282 290 295 304 312 318 322 326 328 329 325 319 320 326 329 329 328 328 327 324 321 326 337 338 341 344 352 9 33 59 74 74 71 94
181 184 180 183 191 207 227 242 253 268 274 281 298 310 318 323 324 324 325 326 328 329 334 336 334 332 330 331 332 328 326 329 336 340 347 2 14 25 52 69 78 77 68 77
174 172 174 178 178 186 208 231 248 263 277 291 304 309 310 313 316 320 324 329 334 338 337 335 331 334 334 334 338 333 339 347 356 1 7 21 37 52 63 73 76 71 71 75
170 168 170 178 181 187 209 230 247 266 282 293 304 311 318 321 324 327 328 328 330 332 329 329 332 337 336 335 340 340 348 358 11 17 24 35 45 54 62 72 79 75 71 72
176 172 175 182 192 203 214 224 236 263 286 299 304 308 312 316 322 328 331 333 335 338 335 330 339 340 337 334 335 348 358 9 22 31 39 50 58 59 63 68 69 61 58 56
180 178 182 185 193 211 223 222 230 256 283 300 307 312 318 323 329 329 321 320 328 333 337 337 342 339 340 339 349 359 9 21 30 43 50 56 65 64 60 62 65 60 56 50
179 179 181 187 199 210 220 222 227 240 264 287 303 313 316 314 318 327 332 331 333 333 337 339 340 341 345 352 359 3 10 20 31 43 53 58 64 69 71 69 70 74 66 50
179 182 190 188 177 188 218 229 228 232 249 276 293 307 315 320 320 311 313 319 330 333 339 339 342 347 352 2 3 6 11 15 21 35 48 56 60 65 69 70 68 72 74 63
188 186 186 183 192 208 215 211 208 222 243 278 299 317 322 312 308 316 322 329 337 342 345 345 349 353 1 4 5 8 10 10 10 18 34 41 49 58 60 59 64 69 64 56
195 198 202 203 203 200 187 180 190 204 213 257 287 310 324 325 323 326 331 338 345 347 352 354 356 358 3 3 4 7 9 7 10 15 20 27 35 40 48 59 66 67 68 62
201 203 208 216 212 193 178 176 183 192 196 210 252 301 323 333 340 344 345 349 352 354 357 358 1 3 4 5 6 10 12 12 11 13 15 17 19 21 25 39 49 57 63 66
Height
1513 1510 1509 1512 1513 1513 1516 1519 1525 1520 1517 1511 1509 1507 1504 1501 1498 1495 1492 1488 1485 1481 1477 1472 1468 1464 1459 1455 1451 1447 1443 1440 1436 1434 1432 1430 1429 1428 1427 1427 1427 1427 1428 1428
1515 1512 1512 1516 1515 1514 1515 1515 1516 1515 1514 1507 1506 1504 1502 1498 1495 1491 1487 1484 1480 1475 1471 1466 1461 1456 1451 1446 1442 1438 1433 1429 1426 1424 1421 1419 1418 1418 1417 1417 1417 1418 1418 1419
1523 1516 1517 1522 1516 1514 1514 1512 1513 1516 1512 1505 1504 1501 1498 1494 1491 1487 1483 1479 1474 1470 1464 1459 1454 1448 1442 1437 1433 1428 1424 1420 1416 1413 1410 1408 1407 1406 1406 1407 1408 1408 1409 1410
1525 1522 1526 1519 1509 1509 1510 1509 1508 1507 1506 1504 1501 1498 1495 1491 1488 1483 1479 1474 1469 1463 1458 1452 1447 1441 1435 1429 1424 1419 1414 1409 1406 1403 1400 1398 1396 1395 1395 1396 1397 1398 1400 1401
1528 1525 1522 1514 1508 1508 1510 1510 1505 1505 1503 1501 1498 1494 1490 1488 1485 1480 1475 1470 1464 1458 1452 1445 1439 1433 1427 1420 1415 1410 1404 1400 1396 1393 1390 1388 1386 1385 1385 1386 1387 1388 1390 1392
1526 1524 1526 1514 1506 1505 1508 1511 1503 1502 1500 1498 1496 1496 1488 1483 1480 1475 1470 1465 1458 1452 1445 1438 1432 1426 1419 1412 1407 1401 1396 1391 1387 1383 1380 1378 1376 1376 1376 1376 1377 1379 1381 1383
1523 1524 1518 1506 1503 1505 1515 1511 1500 1499 1497 1495 1493 1491 1485 1480 1475 1471 1465 1459 1452 1445 1438 1432 1425 1419 1412 1405 1399 1393 1387 1382 1378 1374 1371 1369 1367 1367 1367 1368 1369 1370 1372 1375
1526 1524 1519 1501 1502 1505 1504 1497 1497 1495 1494 1492 1489 1485 1481 1476 1471 1465 1459 1452 1446 1439 1432 1425 1419 1412 1405 1398 1392 1386 1380 1375 1370 1366 1364 1361 1359 1359 1359 1359 1361 1362 1364 1366
1512 1510 1500 1497 1497 1497 1496 1495 1494 1493 1491 1488 1485 1481 1476 1471 1466 1460 1454 1447 1440 1433 1426 1419 1413 1407 1399 1392 1386 1380 1374 1368 1363 1360 1357 1355 1353 1352 1352 1352 1353 1355 1357 1359
1503 1498 1495 1494 1494 1494 1493 1493 1492 1490 1488 1485 1481 1477 1472 1467 1461 1455 1449 1442 1435 1428 1421 1414 1408 1401 1395 1388 1381 1375 1369 1363 1358 1354 1351 1349 1347 1346 1346 1347 1348 1349 1350 1352
1499 1494 1493 1491 1491 1491 1491 1490 1489 1487 1485 1482 1478 1473 1469 1463 1457 1451 1444 1437 1430 1424 1416 1409 1403 1396 1390 1384 1377 1371 1365 1359 1355 1350 1347 1345 1343 1342 1342 1342 1343 1344 1345 1347
1495 1488 1489 1488 1487 1488 1488 1487 1486 1484 1481 1478 1475 1470 1465 1459 1453 1447 1440 1433 1426 1419 1412 1405 1399 1392 1386 1380 1374 1368 1362 1357 1352 1348 1345 1343 1341 1340 1339 1339 1339 1340 1342 1344
1483 1484 1485 1485 1485 1485 1485 1484 1483 1481 1478 1475 1471 1467 1462 1456 1449 1443 1436 1429 1422 1416 1409 1402 1395 1389 1383 1377 1371 1365 1360 1355 1350 1347 1344 1341 1340 1339 1338 1337 1337 1338 1339 1341
1481 1482 1482 1482 1483 1483 1482 1481 1480 1478 1475 1472 1468 1463 1458 1452 1446 1439 1433 1426 1419 1413 1406 1399 1392 1386 1380 1374 1368 1363 1358 1354 1350 1346 1343 1341 1340 1339 1338 1337 1337 1337 1338 1339
1477 1479 1480 1480 1480 1480 1480 1478 1477 1475 1472 1468 1465 1460 1455 1449 1442 1436 1430 1423 1416 1410 1403 1396 1389 1383 1377 1371 1365 1361 1356 1352 1349 1347 1344 1342 1340 1339 1339 1338 1338 1338 1339 1339
1474 1476 1477 1477 1477 1477 1477 1475 1474 1471 1469 1465 1461 1457 1452 1446 1440 1434 1427 1421 1414 1407 1400 1394 1387 1381 1375 1369 1364 1359 1355 1352 1349 1347 1345 1343 1342 1341 1340 1339 1339 1339 1340 1340
1470 1472 1473 1474 1474 1474 1474 1473 1471 1469 1466 1462 1459 1454 1449 1443 1437 1430 1424 1418 1412 1406 1399 1393 1386 1379 1373 1368 1363 1359 1355 1352 1350 1348 1347 1345 1344 1342 1342 1341 1341 1341 1342 1342
1467 1469 1470 1471 1471 1471 1470 1469 1468 1466 1463 1460 1456 1452 1446 1440 1434 1428 1422 1416 1410 1404 1398 1392 1385 1378 1373 1368 1363 1359 1356 1353 1351 1350 1348 1347 1346 1345 1344 1344 1344 1344 1344 1344
1464 1465 1467 1467 1468 1468 1467 1466 1465 1463 1460 1457 1453 1449 1444 1439 1433 1427 1421 1415 1408 1402 1396 1390 1384 1378 1373 1368 1364 1360 1357 1355 1353 1351 1350 1349 1348 1348 1347 1347 1347 1347 1347 1347
1461 1462 1464 1464 1465 1465 1464 1463 1462 1460 1458 1455 1451 1446 1442 1436 1431 1425 1419 1414 1409 1403 1397 1391 1384 1378 1373 1369 1365 1361 1358 1356 1355 1354 1353 1352 1351 1351 1351 1351 1351 1351 1351 1351
1458 1459 1461 1462 1462 1462 1462 1461 1460 1458 1456 1453 1449 1444 1440 1435 1429 1424 1418 1412 1408 1402 1397 1391 1385 1380 1375 1371 1367 1363 1361 1359 1357 1356 1356 1355 1355 1355 1355 1355 1355 1355 1356 1356
1455 1456 1458 1459 1459 1459 1459 1458 1458 1456 1454 1451 1447 1443 1438 1433 1427 1423 1418 1413 1407 1402 1397 1391 1386 1381 1377 1373 1370 1366 1364 1362 1361 1360 1359 1359 1359 1359 1359 1359 1360 1360 1361 1361
1451 1453 1455 1456 1457 1457 1456 1456 1455 1453 1451 1448 1445 1441 1436 1432 1426 1421 1416 1412 1407 1402 1397 1392 1388 1383 1379 1376 1373 1370 1368 1366 1364 1363 1363 1363 1363 1363 1363 1364 1365 1365 1366 1367
1449 1450 1451 1452 1452 1453 1453 1453 1452 1450 1449 1446 1443 1439 1435 1430 1425 1421 1416 1412 1407 1403 1398 1394 1389 1385 1382 1379 1376 1373 1371 1370 1369 1368 1367 1367 1367 1367 1368 1369 1370 1370 1371 1372
1445 1446 1447 1448 1448 1448 1449 1449 1449 1448 1446 1444 1441 1437 1433 1429 1424 1420 1416 1411 1407 1403 1399 1395 1391 1387 1383 1381 1379 1377 1375 1373 1372 1372 1371 1371 1371 1372 1372 1373 1375 1376 1377 1378
1440 1441 1441 1441 1442 1443 1443 1444 1444 1444 1443 1441 1439 1435 1432 1428 1423 1419 1415 1411 1407 1404 1400 1396 1393 1389 1386 1383 1381 1379 1378 1377 1376 1376 1375 1375 1375 1376 1377 1378 1379 1380 1381 1382
1434 1435 1436 1436 1436 1436 1437 1438 1439 1440 1439 1438 1436 1433 1430 1426 1422 1418 1414 1411 1407 1404 1401 1398 1394 1391 1388 1386 1384 1382 1381 1380 1380 1379 1379 1379 1379 1380 1381 1382 1383 1384 1385 1387